Weather History for Prague, Czech Republic

Change the Weather History Date:

Saturday, February 18, 2012

  Actual Average Record
Temperature  
Mean Temperature 38 °F -  
Max Temperature 42 °F 42 °F 50 °F (1998)
Min Temperature 33 °F 28 °F 10 °F (2003)
Degree Days  
Heating Degree Days 28    
Moisture  
Dew Point 33 °F    
Average Humidity 86    
Maximum Humidity 93    
Minimum Humidity 73    
Precipitation  
Precipitation 0.00 in 0.03 in - ()
Sea Level Pressure  
Sea Level Pressure 30.02 in    
Wind  
Wind Speed 11 mph ()    
Max Wind Speed 21 mph    
Max Gust Speed -    
Visibility 6.7 miles    
Events      
Averages and records for this station are not official NWS values.
T = Trace of Precipitation, MM = Missing Value Source: Averaged Metar Reports

Daily Weather History Graph

Daily Weather History Graph

Search for Another Location

Airport:

Trip Planner

Search our weather history database for the weather conditions in past years. The results will help you decide how hot, cold, wet, or windy it might be!

Date:

Astronomy

Feb. 18, 2012 Rise Set
Actual Time 7:09 AM CET 5:25 PM CET
Civil Twilight 6:36 AM CET 5:58 PM CET
Nautical Twilight 5:58 AM CET 6:36 PM CET
Astronomical Twilight 5:21 AM CET 7:13 PM CET
Moon 4:52 AM CET (2/18) 1:47 PM CET (2/18)
Length of Visible Light 11h 22m
Length of Day
10h 15m
Waning Crescent, 13% of the Moon is Illuminated
Feb 18
Waning Crescent
Feb 21
New
Mar 1
First Quarter
Mar 8
Full
Mar 15
Last Quarter

Hourly Weather History & Observations

Time (CET) Temp. Windchill Dew Point Humidity Pressure Visibility Wind Dir Wind Speed Gust Speed Precip Events Conditions
12:00 AM 35.6 °F 28.6 °F 33.8 °F 93% 30.09 in 6.2 mi WSW 9.2 mph - N/A   Partly Cloudy
12:30 AM 35.6 °F 28.0 °F 33.8 °F 93% 30.09 in 6.2 mi SW 10.4 mph - N/A   Partly Cloudy
1:00 AM 35 °F - 33 °F 87% 30.15 in 9 mi WSW 11.2 mph - -   Partly Cloudy
1:00 AM 35.6 °F 27.1 °F 32.0 °F 87% 30.09 in 6.2 mi SW 12.7 mph - N/A   Partly Cloudy
1:30 AM 35.6 °F 26.6 °F 32.0 °F 87% 30.09 in - SW 13.8 mph - N/A   Clear
2:00 AM 33.8 °F 24.8 °F 32.0 °F 93% 30.09 in - WSW 12.7 mph - N/A   Clear
2:30 AM 33.8 °F 25.8 °F 32.0 °F 93% 30.09 in - WSW 10.4 mph - N/A   Clear
3:00 AM 35.6 °F 27.5 °F 32.0 °F 87% 30.09 in - SW 11.5 mph - N/A   Clear
3:30 AM 33.8 °F 25.8 °F 32.0 °F 93% 30.06 in 6.2 mi SW 10.4 mph - N/A   Mostly Cloudy
4:00 AM 35.6 °F 28.6 °F 32.0 °F 87% 30.06 in 6.2 mi SW 9.2 mph - N/A   Mostly Cloudy
4:30 AM 35.6 °F 29.2 °F 33.8 °F 93% 30.06 in 6.2 mi WSW 8.1 mph - N/A   Mostly Cloudy
5:00 AM 33.8 °F 26.4 °F 32.0 °F 93% 30.06 in 6.2 mi SW 9.2 mph - N/A   Mostly Cloudy
5:30 AM 33.8 °F 26.4 °F 32.0 °F 93% 30.06 in 6.2 mi SW 9.2 mph - N/A   Mostly Cloudy
6:00 AM 33.8 °F 26.4 °F 32.0 °F 93% 30.06 in 5.6 mi SW 9.2 mph - N/A   Mostly Cloudy
6:30 AM 33.8 °F 25.8 °F 32.0 °F 93% 30.06 in 5.6 mi SSW 10.4 mph - N/A   Scattered Clouds
7:00 AM 34 °F - 33 °F 93% 30.13 in 5 mi SW 11.2 mph - -   Mist
7:00 AM 33.8 °F 25.3 °F 32.0 °F 93% 30.06 in 5.0 mi SSW 11.5 mph - N/A   Partly Cloudy
7:30 AM 33.8 °F 25.8 °F 32.0 °F 93% 30.06 in 5.6 mi SSW 10.4 mph - N/A   Partly Cloudy
8:00 AM 35.6 °F 28.6 °F 32.0 °F 87% 30.06 in 6.2 mi SSW 9.2 mph - N/A   Mostly Cloudy
8:30 AM 35.6 °F 26.6 °F 33.8 °F 93% 30.06 in 6.2 mi SW 13.8 mph - N/A   Mostly Cloudy
9:00 AM 35.6 °F 26.2 °F 33.8 °F 93% 30.06 in 6.2 mi SW 15.0 mph - N/A   Mostly Cloudy
9:30 AM 37.4 °F 28.9 °F 33.8 °F 87% 30.06 in 6.2 mi WSW 13.8 mph - N/A   Mostly Cloudy
10:00 AM 37.4 °F 28.9 °F 33.8 °F 87% 30.06 in 6.2 mi WSW 13.8 mph - N/A   Scattered Clouds
10:30 AM 39.2 °F 30.5 °F 35.6 °F 87% 30.06 in 6.2 mi WSW 16.1 mph - N/A   Partly Cloudy
11:00 AM 39.2 °F 30.5 °F 35.6 °F 87% 30.06 in 6.2 mi WSW 16.1 mph - N/A   Mostly Cloudy
11:30 AM 39.2 °F 31.6 °F 35.6 °F 87% 30.06 in 6.2 mi SW 12.7 mph - N/A   Scattered Clouds
12:00 PM 39.2 °F 31.6 °F 35.6 °F 87% 30.04 in 6.2 mi SW 12.7 mph - N/A   Scattered Clouds
12:30 PM 41.0 °F 34.3 °F 35.6 °F 81% 30.04 in 6.2 mi SW 11.5 mph - N/A   Scattered Clouds
1:00 PM 41 °F - 35 °F 73% 30.08 in 16 mi WSW 11.2 mph - -   Mostly Cloudy
1:00 PM 41.0 °F 33.9 °F 35.6 °F 81% 30.04 in 6.2 mi WSW 12.7 mph - N/A   Mostly Cloudy
1:30 PM 41.0 °F 34.3 °F 35.6 °F 81% 30.01 in 6.2 mi SW 11.5 mph - N/A   Scattered Clouds
2:00 PM 41.0 °F 33.1 °F 35.6 °F 81% 30.01 in 6.2 mi SW 15.0 mph - N/A   Partly Cloudy
2:30 PM 42.8 °F 34.5 °F 35.6 °F 76% 30.01 in 6.2 mi SW 18.4 mph - N/A   Partly Cloudy
3:00 PM 41.0 °F 32.2 °F 33.8 °F 76% 30.01 in 6.2 mi SW 18.4 mph - N/A   Partly Cloudy
3:30 PM 41.0 °F 31.6 °F 33.8 °F 76% 29.98 in 6.2 mi SW 20.7 mph - N/A   Partly Cloudy
4:00 PM 41.0 °F 31.9 °F 33.8 °F 76% 29.98 in 6.2 mi SW 19.6 mph - N/A   Partly Cloudy
4:30 PM 39.2 °F 29.8 °F 33.8 °F 81% 29.98 in 6.2 mi SW 18.4 mph - N/A   Partly Cloudy
5:00 PM 39.2 °F 30.2 °F 32.0 °F 75% 29.98 in - SW 17.3 mph - N/A   Clear
5:30 PM 37.4 °F 27.8 °F 32.0 °F 81% 29.98 in - SW 17.3 mph - N/A   Clear
6:00 PM 37.4 °F 28.9 °F 32.0 °F 81% 29.95 in - SW 13.8 mph - N/A   Clear
6:30 PM 37.4 °F 27.8 °F 32.0 °F 81% 29.95 in - SW 17.3 mph - N/A   Clear
7:00 PM 36 °F - 31 °F 77% 30.01 in 19 mi SW 15.7 mph - -   Mostly Cloudy
7:00 PM 35.6 °F 26.6 °F 32.0 °F 87% 29.95 in - SW 13.8 mph - N/A   Clear
7:30 PM 37.4 °F 28.5 °F 32.0 °F 81% 29.95 in - SSW 15.0 mph - N/A   Clear
8:00 PM 37.4 °F 28.2 °F 32.0 °F 81% 29.92 in 6.2 mi SSW 16.1 mph - N/A   Mostly Cloudy
8:30 PM 37.4 °F 28.2 °F 32.0 °F 81% 29.92 in 6.2 mi SSW 16.1 mph - N/A   Mostly Cloudy
9:00 PM 35.6 °F 26.2 °F 32.0 °F 87% 29.92 in 6.2 mi SSW 15.0 mph - N/A   Scattered Clouds
9:30 PM 37.4 °F 28.9 °F 33.8 °F 87% 29.92 in 6.2 mi SSW 13.8 mph - N/A   Scattered Clouds
10:00 PM 37.4 °F 27.8 °F 33.8 °F 87% 29.92 in 6.2 mi SSW 17.3 mph - N/A   Mostly Cloudy
10:30 PM 37.4 °F 29.3 °F 33.8 °F 87% 29.92 in 6.2 mi SSW 12.7 mph - N/A   Mostly Cloudy
11:00 PM 37.4 °F 31.4 °F 33.8 °F 87% 29.92 in - SSW 8.1 mph - N/A   Clear
11:30 PM 37.4 °F 28.9 °F 33.8 °F 87% 29.89 in - SSW 13.8 mph - N/A   Clear